Terminal Aerodrome Forecast
Issued by NWS Denver/Boulder, CO

Home | Current Version | Previous Version | Text Only | Print | Product List | Glossary On
Versions: 1 2 3 4 5 6 7 8 9 10 11 12 13 14 15 16 17 18 19 20 21 22 23 24 25 26 27 28 29 30 31 32 33 34 35 36 37 38 39 40 41 42 43 44 45 46 47 48 49 50
000
FTUS45 KBOU 302101 AAC
TAFDEN
TAF AMD
KDEN 302101Z 3021/0124 29011G18KT P6SM FEW080 SCT120 BKN200
     FM302300 30010KT P6SM SCT080 BKN120
     FM010100 25008KT P6SM SCT060 BKN080
     FM010400 21008KT P6SM SCT060 BKN100
     FM010800 21010KT P6SM SCT100 BKN140
     FM011500 08008KT P6SM SCT090 BKN140
     FM012000 02011KT P6SM SCT040 BKN070
      TEMPO 0120/0124 SHRA SCT020 OVC040=

USA.gov is the U.S. government's official web portal to all federal, state and local government web resources and services.